Milton, FL

5:25 AM CST on January 21, 2018 (GMT -0600)
Whiting Field Naval Air Station (South)

Weather History for KNDZ - March, 2013

Change the Weather History Date:

Friday, March 1, 2013

  Actual Average (KNSE) Record (KNSE)
Temperature  
Mean Temperature 48 °F -  
Max Temperature 57 °F 65 °F 84 °F (2012)
Min Temperature 37 °F 46 °F 32 °F (2002)
Degree Days  
Heating Degree Days 17    
Moisture  
Dew Point 30 °F    
Average Humidity 56    
Maximum Humidity 73    
Minimum Humidity 33    
Precipitation  
Precipitation 0.00 in - - ()
Sea Level Pressure  
Sea Level Pressure 30.04 in    
Wind  
Wind Speed 7 mph (NNW)    
Max Wind Speed 14 mph    
Max Gust Speed 17 mph    
Visibility 10 miles    
Events      
Averages and records for this station are not official NWS values.
T = Trace of Precipitation, MM = Missing Value Source: NWS Daily Summary

Daily Weather History Graph

Daily Weather History Graph

Search for Another Location

Airport or City:

Trip Planner

Search our weather history database for the weather conditions in past years. The results will help you decide how hot, cold, wet, or windy it might be!

Date:

Astronomy

Mar. 01, 2013 Rise Set
Actual Time 6:14 AM CST 5:46 PM CST
Civil Twilight 5:49 AM CST 6:11 PM CST
Nautical Twilight 5:22 AM CST 6:39 PM CST
Astronomical Twilight 4:54 AM CST 7:06 PM CST
Moon 9:57 PM CST (3/1) 8:20 AM CST (3/1)
Length of Visible Light 12h 21m
Length of Day
11h 32m
Waning Gibbous, 83% of the Moon is Illuminated
Mar 1
Waning Gibbous
Mar 4
Last Quarter
Mar 11
New
Mar 19
First Quarter
Mar 27
Full

Hourly Weather History & Observations

Time (CST) Temp. Windchill Dew Point Humidity Pressure Visibility Wind Dir Wind Speed Gust Speed Precip Events Conditions
12:56 AM 46.0 °F 41.0 °F 32.0 °F 58% 30.05 in 10.0 mi North 10.4 mph - N/A   Clear
1:56 AM 45.0 °F 40.6 °F 32.0 °F 60% 30.05 in 10.0 mi North 8.1 mph - N/A   Clear
2:56 AM 39.9 °F 36.7 °F 30.9 °F 70% 30.04 in 10.0 mi NNW 4.6 mph - N/A   Clear
3:56 AM 39.0 °F 34.8 °F 30.9 °F 73% 30.03 in 10.0 mi North 5.8 mph - N/A   Clear
4:56 AM 39.0 °F 34.0 °F 30.9 °F 73% 30.04 in 10.0 mi North 6.9 mph - N/A   Clear
5:56 AM 39.0 °F 36.8 °F 30.0 °F 70% 30.06 in 10.0 mi NW 3.5 mph - N/A   Clear
6:56 AM 39.0 °F - 30.9 °F 73% 30.07 in 10.0 mi Calm Calm - N/A   Clear
7:56 AM 43.0 °F 41.3 °F 32.0 °F 65% 30.09 in 10.0 mi NNW 3.5 mph - N/A   Clear
8:56 AM 46.9 °F - 28.0 °F 48% 30.09 in 10.0 mi NNW 11.5 mph - N/A   Clear
9:56 AM 50.0 °F - 28.9 °F 44% 30.08 in 10.0 mi NNW 8.1 mph - N/A   Clear
10:56 AM 50.0 °F - 28.9 °F 44% 30.07 in 10.0 mi North 8.1 mph - N/A   Clear
11:56 AM 52.0 °F - 28.9 °F 41% 30.04 in 10.0 mi NW 11.5 mph 16.1 mph N/A   Clear
12:56 PM 54.0 °F - 30.0 °F 40% 30.01 in 10.0 mi Variable 4.6 mph - N/A   Clear
1:56 PM 55.9 °F - 30.0 °F 37% 29.99 in 10.0 mi NNW 10.4 mph - N/A   Partly Cloudy
2:56 PM 57.0 °F - 28.0 °F 33% 29.98 in 10.0 mi NNW 11.5 mph 17.3 mph N/A   Scattered Clouds
3:56 PM 55.0 °F - 28.9 °F 37% 29.98 in 10.0 mi NW 8.1 mph - N/A   Partly Cloudy
4:56 PM 54.0 °F - 30.0 °F 40% 29.98 in 10.0 mi Calm Calm - N/A   Mostly Cloudy
5:56 PM 51.1 °F - 30.0 °F 44% 30.00 in 10.0 mi NNW 4.6 mph - N/A   Partly Cloudy
6:56 PM 46.0 °F - 34.0 °F 63% 30.01 in 10.0 mi Calm Calm - N/A   Mostly Cloudy
7:56 PM 46.0 °F 43.1 °F 33.1 °F 61% 30.04 in 10.0 mi NW 5.8 mph - N/A   Mostly Cloudy
8:56 PM 44.1 °F 39.5 °F 30.9 °F 60% 30.06 in 10.0 mi NNW 8.1 mph - N/A   Clear
9:56 PM 43.0 °F 36.0 °F 30.9 °F 62% 30.09 in 10.0 mi NNW 13.8 mph - N/A   Clear
10:56 PM 39.9 °F 33.4 °F 30.0 °F 68% 30.10 in 10.0 mi NNW 10.4 mph - N/A   Clear
11:56 PM 37.9 °F 32.7 °F 28.9 °F 70% 30.10 in 10.0 mi NNW 6.9 mph - N/A   Clear